Location: Gleizolles
(44.4833°N, 6.7667°E)
Time: 03:40:46
(UTC+00:00)

X-37B - Pass Details

Date: 10 December 2021
Orbit: 334 x 337 km, 45.0° (Epoch: 11 January)

Event Time Altitude Azimuth Distance (km) Brightness Sun altitude
Rises 18:13:43 0° 268° (W) 2,103 5.7 -24.2°
Reaches altitude 10° 18:15:44 10° 269° (W) 1,266 4.2 -24.5°
Enters shadow 18:16:46 20° 272° (W) 846 3.1 -24.7°
